Weather Roundup
Issued by NWS Chicago, IL

Home | Current Version | Previous Version | Graphics & Text | Print | Product List | Glossary On
Versions: 1 2 3 4 5 6 7 8 9 10 11 12 13 14 15 16 17 18 19 20 21 22 23 24 25 26 27 28 29 30 31 32 33 34 35 36 37 38 39 40 41 42 43 44 45 46 47 48 49 50
114
NZUS59 KLOT 022103
HRRLOT

CHICAGO AREA WEATHER ROUNDUP
NATIONAL WEATHER SERVICE CHICAGO/ROMEOVILLE IL
400 PM CDT MON MAY 02 2016

NOTE: "FAIR" INDICATES FEW OR NO CLOUDS BELOW 12,000 FEET WITH NO
SIGNIFICANT WEATHER AND/OR OBSTRUCTIONS TO VISIBILITY.

* THESE STATIONS ARE NOT UNDER NWS QUALITY CONTROL. THEY ALSO MAY NOT
  REPORT WEATHER SUCH AS PRECIPITATION OR FOG.

ILZ005-006-012>014-019>023-022200-
NORTHEAST ILLINOIS

CITY           SKY/WX    TMP DP  RH WIND       PRES   REMARKS
OHARE          MOSUNNY   57  33  40 NE14      30.03F
MIDWAY         MOSUNNY   56  34  43 NE16      30.03F
AURORA         PTSUNNY   60  37  42 NE14      30.02F
LANSING*       SUNNY     54  40  59 NE13      30.03F
WAUKEGAN       SUNNY     57  37  47 NE13      30.04F
DUPAGE AIRPORT SUNNY     59  33  37 NE17G28   30.02F
WHEELING       SUNNY     56  35  45 NE14      30.05F
$$

WIZ051-052-058>065-066-070>072-022200-
SOUTHEAST WISCONSIN

CITY           SKY/WX    TMP DP  RH WIND       PRES   REMARKS
MILWAUKEE      MOSUNNY   56  36  47 NE12      30.04F
KENOSHA*       SUNNY     60  36  40 NE13      30.04F
RACINE*        SUNNY     57  34  41 N15       30.05F
BURLINGTON     MOSUNNY   60  32  34 NE10G16   30.03S
WAUKESHA       MOSUNNY   57  30  35 NE17      30.04F
$$

INZ001>003-010>013-019-020-022200-
NORTHWEST INDIANA

CITY           SKY/WX    TMP DP  RH WIND       PRES   REMARKS
GARY*          MOSUNNY   52  45  76 N8G22     30.05F
MICHIGAN CITY* NOT AVBL
RENSSELAER*    NOT AVBL
VALPARAISO     CLOUDY    50  41  71 N13       30.02F
$$

LMZ740>746-022200-
SOUTHERN LAKE MICHIGAN

STATION/POSITION TIME  SKY/WX   TEMP WIND        PRES    VSBY
                                AIR  DIR/SP/G
                 (UTC)          (F)  (DEG/KT/KT) (MB)    (MI)
HARRISON CRIB    2000            46   10/ 12/ 13   N/A
BURNHAM HARBOR   2100            51  360/  8/ 13   N/A
CALUMET HARBOR   2000            47  350/ 12/ 16 1017.1F
BURNS HARBOR     2026            45   10/ 10/ 12 1017.6F
MICHIGAN CITY    2000            44  360/  7/  8   N/A
$$

ABBREVIATIONS USED IN REMARKS
   TC - TEMPERATURE IN CELSIUS
  WCI - WIND CHILL INDEX
   HX - HEAT INDEX
  VSB - VISIBILITY
$$




USA.gov is the U.S. government's official web portal to all federal, state and local government web resources and services.